Location: Newark
(50.4348°N, 30.5552°E)
Time: 08:21:45
(UTC+00:00)

N. Korean satellite - Visible Passes

Search period start: 12 December 2019 00:00
Search period end: 22 December 2019 00:00
Orbit: 455 x 506 km, 97.2° (Epoch: 11 December)

Date Brightness Start Highest point End Pass type
(mag) Time Alt. Az. Time Alt. Az. Time Alt. Az.
12 Dec 6.4 04:09:11 10° N 04:12:44 74° WNW 04:16:12 10° SSW visible
12 Dec 6.6 14:48:38 10° SSE 14:52:20 84° ENE 14:56:02 10° NNW visible
13 Dec 7.2 03:43:47 10° NNE 03:47:16 54° E 03:50:41 10° S visible
13 Dec 9.7 15:58:00 10° SW 16:00:33 18° W 16:03:07 10° NW visible
14 Dec 8.7 03:18:39 10° NE 03:21:43 27° E 03:24:44 10° SSE visible
14 Dec 7.6 04:52:07 10° N 04:55:03 24° WNW 04:57:55 10° WSW visible
14 Dec 8.6 15:31:37 10° SSW 15:34:57 32° W 15:38:16 10° NNW visible
15 Dec 9.7 02:53:58 10° NE 02:56:04 15° E 02:58:09 10° SE visible
15 Dec 6.7 04:26:21 10° N 04:29:44 45° WNW 04:33:03 10° SW visible
15 Dec 7.2 15:05:46 10° S 15:09:25 61° W 15:13:03 10° NNW visible
16 Dec 6.4 04:00:48 10° NNE 04:04:21 88° ESE 04:07:48 10° SSW visible
16 Dec 6.6 14:40:20 10° SSE 14:43:59 68° ENE 14:47:37 10° N visible
16 Dec 10.1 16:16:26 10° WSW 16:17:48 12° W 16:19:08 10° WNW visible
17 Dec 7.7 03:35:29 10° NNE 03:38:51 43° E 03:42:08 10° S visible
17 Dec 8.0 05:09:38 10° NNW 05:11:57 17° WNW 05:14:14 10° WSW visible
17 Dec 9.4 15:49:16 10° SW 15:52:07 21° W 15:54:57 10° NW visible
18 Dec 9.0 03:10:26 10° NE 03:13:15 22° E 03:16:01 10° SSE visible
18 Dec 7.3 04:43:37 10° N 04:46:41 29° WNW 04:49:43 10° SW visible
18 Dec 8.2 15:23:04 10° SSW 15:26:31 38° W 15:29:57 10° NNW visible
19 Dec 9.9 02:46:07 10° ENE 02:47:34 12° E 02:49:00 10° ESE visible
19 Dec 6.5 04:17:54 10° N 04:21:21 56° WNW 04:24:43 10° SSW visible
19 Dec 6.8 14:57:22 10° S 15:01:01 77° WSW 15:04:39 10° NNW visible
20 Dec 6.7 03:52:26 10° NNE 03:55:55 70° ESE 03:59:20 10° S visible
20 Dec 6.7 14:32:03 10° SSE 14:35:36 54° ENE 14:39:09 10° N visible
20 Dec 9.9 16:07:20 10° WSW 16:09:19 14° W 16:11:17 10° WNW visible
21 Dec 8.2 03:27:10 10° NNE 03:30:23 34° E 03:33:32 10° SSE visible
21 Dec 7.8 05:01:00 10° NNW 05:03:35 20° WNW 05:06:09 10° WSW visible
21 Dec 9.1 15:40:36 10° SSW 15:43:39 25° W 15:46:42 10° NW visible
